Regional Weather Roundup
Issued by NWS

Home | Current Version | Previous Version | Text Only | Print | Product List | Glossary On
Versions: 1 2 3 4 5 6 7 8 9 10 11 12 13 14 15 16 17 18 19 20 21 22 23 24 25 26 27 28 29 30 31 32 33 34 35 36 37 38 39 40 41 42 43 44 45 46 47 48 49 50
000
ASUS43 KOAX 171302
RWRNE

WEATHER ROUNDUP FOR NEBRASKA
NATIONAL WEATHER SERVICE OMAHA NE
700 AM CST SUN DEC 17 2017

NOTES: SATELLITE DATA IS BEING USED TO AUGMENT CLOUD COVER ABOVE
       12000 FEET.
       "FAIR" INDICATES FEW OR NO CLOUDS BELOW 12,000 FEET WITH NO
       SIGNIFICANT WEATHER AND/OR OBSTRUCTIONS TO VISIBILITY.


NEZ001>004-019>022-054>056-171400-
NEBRASKA PANHANDLE

CITY           SKY/WX    TMP DP  RH WIND       PRES   REMARKS
SCOTTSBLUFF    CLOUDY    31  29  92 CALM      30.03R
ALLIANCE       CLOUDY    29  29 100 CALM      30.01R
CHADRON        CLOUDY    30  28  92 SW3       30.03S
GORDON         CLOUDY    31  29  92 CALM      30.02R
KIMBALL        FOG       28  28 100 CALM      30.00R VSB 1/2
SIDNEY         CLOUDY    30  29  96 E10       30.00R WCI  21
$$

NEZ057>060-069>072-079>082-171400-
SOUTHWEST NEBRASKA

CITY           SKY/WX    TMP DP  RH WIND       PRES   REMARKS
NORTH PLATTE   CLOUDY    35  32  88 NW6       30.02R WCI  30
IMPERIAL       CLOUDY    33  33 100 N8        30.02R WCI  26
LEXINGTON      CLOUDY    27  25  90 N6        30.00R WCI  21
MCCOOK         CLOUDY    34  30  85 N10       30.01R WCI  26
OGALLALA       CLOUDY    35  33  94 N3        30.02R
$$

NEZ005>010-023>029-035>040-094-171400-
NORTH CENTRAL NEBRASKA

CITY           SKY/WX    TMP DP  RH WIND       PRES   REMARKS
VALENTINE      CLOUDY    33  30  88 CALM      30.04R
AINSWORTH      CLOUDY    32  32 100 CALM      30.02F
BROKEN BOW     CLOUDY    33  30  88 N10       30.00S WCI  25
O`NEILL        CLOUDY    32  32 100 N3        30.05R
ORD            CLOUDY    33  30  88 N10       30.00F WCI  25
THEDFORD       CLOUDY    34  33  95 NE5       30.02F WCI  30
$$

NEZ041-046>049-061>064-073>077-083>087-171400-
SOUTH CENTRAL NEBRASKA

CITY           SKY/WX    TMP DP  RH WIND       PRES   REMARKS
GRAND ISLAND   PTCLDY    28  27  96 N10       29.98S WCI  19
AURORA         CLOUDY    29  28  93 NE8       29.97R WCI  21
HASTINGS       PTCLDY    29  26  89 N9        29.97R WCI  20
HEBRON         CLOUDY    34  32  92 NW3       29.97R
HOLDREGE       CLEAR     26  26 100 N8        29.98R WCI  18
KEARNEY        CLOUDY    27  26  96 N8        29.99R WCI  19
$$

NEZ011>018-030>034-042>045-171400-
NORTHEAST NEBRASKA

CITY           SKY/WX    TMP DP  RH WIND       PRES   REMARKS
NORFOLK        CLOUDY    29  27  92 N8        29.99F WCI  21
ALBION         CLOUDY    32  28  87 N8        29.99F WCI  24
BLAIR          CLOUDY    29  26  89 N9        29.98R WCI  20
COLUMBUS       CLOUDY    30  27  88 N12       29.99  WCI  20
FREMONT        CLOUDY    29  26  88 N7        30.01R WCI  22
TEKAMAH        CLOUDY    27  23  85 N15       30.02R WCI  15
WAYNE          CLOUDY    30  29  96 N8        30.01F WCI  22
$$

NEZ050>053-065>068-078-088>093-171400-
SOUTHEAST NEBRASKA

CITY           SKY/WX    TMP DP  RH WIND       PRES   REMARKS
LINCOLN        MIX PCPN  32  27  81 NE13      29.98S WCI  22
OMAHA EPPLEY   CLOUDY    30  24  78 N7        30.01R WCI  23
BEATRICE       LGT RAIN  34  32  94 N3        29.96R
FALLS CITY     LGT RAIN  42  40  92 S5        29.97S
NEBRASKA CITY  RAIN      33  33  96 N5        29.97S WCI  29
PLATTSMOUTH    CLOUDY    32  28  86 N5        29.97S WCI  27
$$

NEZ044-045-051>053-067-171400-
OMAHA AREA

CITY           SKY/WX    TMP DP  RH WIND       PRES   REMARKS
OMAHA EPPLEY   CLOUDY    30  24  78 N7        30.01R WCI  23
BLAIR          CLOUDY    29  26  89 N9        29.98R WCI  20
FREMONT        CLOUDY    29  26  88 N7        30.01R WCI  22
MILLARD        CLOUDY    32  28  83 N6        30.00R WCI  26
OFFUTT AFB     MOCLDY    31  25  78 N7        29.98R WCI  25
PLATTSMOUTH    CLOUDY    32  28  86 N5        29.97S WCI  27
WAHOO          PTSUNNY   30  26  86 N13       29.98S WCI  20
$$




USA.gov is the U.S. government's official web portal to all federal, state and local government web resources and services.